Augusta Bush, GA

12:16 AM EST on November 19, 2019 (GMT -0500)
Augusta Regional At Bush

Weather History for KAGS - August, 2019

Change the Weather History Date:

Thursday, August 8, 2019

  Actual Average Record
Temperature  
Mean Temperature 87 °F 81 °F  
Max Temperature 99 °F 93 °F 103 °F (2007)
Min Temperature 75 °F 70 °F 52 °F (2004)
Degree Days  
Heating Degree Days 0 0  
Month to date heating degree days 0 0  
Since 1 June heating degree days 0 0  
Since 1 July heating degree days 0 0  
Cooling Degree Days 22 16  
Month to date cooling degree days 145 132  
Year to date cooling degree days 1697 1338  
Since 1 June cooling degree days 1159 1055  
Growing Degree Days 36 (Base 50)    
Moisture  
Dew Point 70 °F    
Average Humidity 60    
Maximum Humidity 82    
Minimum Humidity 38    
Precipitation  
Precipitation 0.00 in 0.14 in 2.24 in (1912)
Month to date precipitation 3.23 1.19  
Year to date precipitation 25.55 27.74  
Sea Level Pressure  
Sea Level Pressure 29.87 in    
Wind  
Wind Speed 6 mph (West)    
Max Wind Speed 14 mph    
Max Gust Speed 20 mph    
Visibility 10 miles    
Events      
T = Trace of Precipitation, MM = Missing Value Source: NWS Daily Summary

Daily Weather History Graph

Daily Weather History Graph

Search for Another Location

Airport or City:

Astronomy

Aug. 08, 2019 Rise Set
Actual Time 6:45 AM EDT 8:21 PM EDT
Civil Twilight 6:18 AM EDT 8:47 PM EDT
Nautical Twilight 5:46 AM EDT 9:19 PM EDT
Astronomical Twilight 5:12 AM EDT 9:53 PM EDT
Moon 2:55 PM EDT (8/8) 1:04 AM EDT (8/8)
Length of Visible Light 14h 29m
Length of Day
13h 35m
First Quarter, 60% of the Moon is Illuminated
Aug 8
First Quarter
Aug 15
Full
Aug 23
Last Quarter
Aug 30
New
Sep 5
First Quarter

Hourly Weather History & Observations

Time (EDT) Temp. Heat Index Dew Point Humidity Pressure Visibility Wind Dir Wind Speed Gust Speed Precip Events Conditions
12:53 AM 79.0 °F - 71.1 °F 77% 29.88 in 10.0 mi SE 5.8 mph - N/A   Clear
1:53 AM 78.1 °F - 72.0 °F 81% 29.86 in 10.0 mi ESE 4.6 mph - N/A   Partly Cloudy
2:53 AM 77.0 °F - 72.0 °F 84% 29.86 in 10.0 mi SSW 5.8 mph - N/A   Scattered Clouds
3:53 AM 79.0 °F - 70.0 °F 74% 29.85 in 10.0 mi WNW 6.9 mph - N/A   Partly Cloudy
4:53 AM 77.0 °F - 71.1 °F 82% 29.85 in 10.0 mi Calm Calm - N/A   Clear
5:53 AM 75.9 °F - 70.0 °F 82% 29.86 in 10.0 mi South 5.8 mph - N/A   Clear
6:53 AM 75.9 °F - 70.0 °F 82% 29.87 in 10.0 mi SW 4.6 mph - N/A   Clear
7:53 AM 79.0 °F - 70.0 °F 74% 29.89 in 10.0 mi SSW 4.6 mph - N/A   Clear
8:53 AM 82.9 °F 87.5 °F 71.1 °F 67% 29.90 in 10.0 mi West 6.9 mph - N/A   Clear
9:53 AM 86.0 °F 91.5 °F 71.1 °F 61% 29.91 in 10.0 mi WSW 5.8 mph - N/A   Clear
10:53 AM 89.1 °F 94.1 °F 70.0 °F 53% 29.91 in 10.0 mi WSW 6.9 mph - N/A   Clear
11:53 AM 93.0 °F 99.0 °F 70.0 °F 47% 29.90 in 10.0 mi WNW 10.4 mph - N/A   Clear
12:53 PM 95.0 °F 99.5 °F 68.0 °F 41% 29.90 in 10.0 mi WNW 12.7 mph 19.6 mph N/A   Clear
1:53 PM 97.0 °F 100.4 °F 66.0 °F 36% 29.88 in 10.0 mi NW 13.8 mph - N/A   Clear
2:53 PM 98.1 °F 103.0 °F 68.0 °F 37% 29.87 in 10.0 mi NNW 9.2 mph - N/A   Clear
3:53 PM 98.1 °F 103.0 °F 68.0 °F 37% 29.86 in 10.0 mi NNW 10.4 mph 17.3 mph N/A   Scattered Clouds
4:53 PM 97.0 °F 102.2 °F 68.0 °F 39% 29.83 in 10.0 mi Variable 4.6 mph - N/A   Scattered Clouds
5:53 PM 97.0 °F 102.2 °F 68.0 °F 39% 29.84 in 10.0 mi NW 11.5 mph - N/A   Scattered Clouds
6:53 PM 95.0 °F 99.0 °F 66.9 °F 40% 29.84 in 10.0 mi NW 9.2 mph - N/A   Clear
7:53 PM 93.0 °F 97.9 °F 69.1 °F 45% 29.85 in 10.0 mi NW 5.8 mph - N/A   Clear
8:53 PM 81.0 °F 86.2 °F 73.9 °F 79% 29.86 in 10.0 mi Calm Calm - N/A   Clear
9:53 PM 82.0 °F 86.7 °F 72.0 °F 71% 29.88 in 10.0 mi Calm Calm - N/A   Clear
10:53 PM 80.1 °F 84.2 °F 73.0 °F 79% 29.88 in 10.0 mi Calm Calm - N/A   Clear
11:53 PM 80.1 °F 83.6 °F 71.1 °F 74% 29.88 in 10.0 mi Calm Calm - N/A   Clear